Stations météo

réclame
Mon MeteoGroup
Tiree, Grande-Bretagne (3100): Température de l'air & dewpoint: 14.09.2018 17:00:00 - 20.09.2018 17:00:00 (BST)Tiree, Grande-Bretagne (3100): Température de l'air -20cm & Température de l'air -100cm: 14.09.2018 17:00:00 - 20.09.2018 17:00:00 (BST)Tiree, Grande-Bretagne (3100): Vitesse du vent & gusts: 14.09.2018 17:00:00 - 20.09.2018 17:00:00 (BST)Tiree, Grande-Bretagne (3100): Direction du vent: 14.09.2018 17:00:00 - 20.09.2018 17:00:00 (BST)Tiree, Grande-Bretagne (3100): reduced air pressure: 14.09.2018 17:00:00 - 20.09.2018 17:00:00 (BST)Tiree, Grande-Bretagne (3100): visibility: 14.09.2018 17:00:00 - 20.09.2018 17:00:00 (BST)Tiree, Grande-Bretagne (3100): Ensoleillement: 14.09.2018 17:00:00 - 20.09.2018 17:00:00 (BST)Tiree, Grande-Bretagne (3100): Quantités de précipitations: 14.09.2018 17:00:00 - 20.09.2018 17:00:00 (BST)
Date & Time tt [°C] td [°C] tt -20cm [°C] tt -100cm [°C] ff [km/h] ff [knt] fx [km/h] fx [knt] dd ppp [hPa] vv [km] sd [min] rr [mm]
20.09.2018 17:00:00 11,9 6,8 - - 22 12 - - WSW 999,4 10 0 0,0
20.09.2018 16:00:00 12,0 6,6 - - 26 14 - - SW 1000,5 10 18 0,0
20.09.2018 15:00:00 12,6 6,8 - - 26 14 46 25 WSW 1001,0 10 36 0,0
20.09.2018 14:00:00 12,5 6,7 - - 34 18 48 26 SW 1001,6 10 30 0,0
20.09.2018 13:00:00 12,5 7,0 - - 37 20 54 29 WSW 1001,6 10 48 0,0
20.09.2018 12:00:00 12,9 6,9 - - 41 22 61 33 WSW 1001,4 10 54 0,0
20.09.2018 11:00:00 12,6 6,7 - - 46 25 65 35 WSW 1001,2 10 48 0,0
20.09.2018 10:00:00 12,3 7,3 13,7 13,0 41 22 68 37 WSW 1000,9 10 36 0,0
20.09.2018 09:00:00 11,2 5,7 - - 46 25 67 36 WSW 1000,2 10 24 0,0
20.09.2018 08:00:00 11,0 6,4 - - 44 24 70 38 SW 999,9 14 0 0,0
20.09.2018 07:00:00 10,8 4,8 - - 55 30 74 40 WSW 999,4 21 0 0,0
20.09.2018 06:00:00 10,6 5,5 - - 48 26 76 41 WSW 999,2 18 0 0,0
20.09.2018 05:00:00 10,6 6,7 - - 48 26 76 41 WSW 999,0 14 0 0,2
20.09.2018 04:00:00 10,5 7,4 - - 44 24 74 40 WSW 998,9 13 0 0,4
20.09.2018 03:00:00 11,2 7,0 - - 46 25 70 38 WSW 998,5 14 0 0,0
20.09.2018 02:00:00 11,0 7,5 - - 50 27 72 39 WSW 998,0 15 0 0,0
20.09.2018 01:00:00 9,4 7,3 - - 42 23 72 39 WSW 997,8 16 - 0,6
20.09.2018 00:00:00 10,2 7,0 - - 46 25 67 36 SW 997,2 16 0 0,0
19.09.2018 23:00:00 10,1 6,2 - - 44 24 63 34 WSW 996,8 22 0 0,0
19.09.2018 22:00:00 10,0 6,9 - - 46 25 70 38 WSW 996,4 18 0 0,6
19.09.2018 21:00:00 10,2 7,1 - - 44 24 76 41 SW 996,1 13 0 0,2
19.09.2018 20:00:00 10,7 6,9 - - 52 28 80 43 WSW 995,3 16 0 0,2
19.09.2018 19:00:00 10,0 7,2 - - 54 29 76 41 WSW 994,5 18 6 1,0
19.09.2018 18:00:00 10,8 5,4 - - 50 27 80 43 WSW 993,5 9 0 0,0
19.09.2018 17:00:00 11,0 7,9 - - 48 26 78 42 WSW 992,2 10 0 0,0
19.09.2018 16:00:00 11,5 8,0 - - 46 25 74 40 SW 990,7 10 12 0,0
19.09.2018 15:00:00 11,5 8,1 - - 52 28 72 39 WSW 988,7 10 0 0,2
19.09.2018 14:00:00 11,2 8,1 - - 52 28 76 41 W 985,8 10 18 0,0
19.09.2018 13:00:00 10,3 8,6 - - 48 26 74 40 WNW 981,2 10 12 0,6
19.09.2018 12:00:00 11,1 10,4 - - 46 25 98 53 SSW 978,1 7 0 1,2
19.09.2018 11:00:00 14,2 10,2 - - 55 30 74 40 S 977,6 9 24 0,0
19.09.2018 10:00:00 11,8 11,0 14,0 13,0 55 30 76 41 SSE 979,0 7 0 2,4
19.09.2018 09:00:00 10,0 9,5 - - 39 21 55 30 ESE 984,3 5 0 4,8
19.09.2018 08:00:00 9,9 8,7 - - 37 20 78 42 SSE 988,9 6 0 2,2
19.09.2018 07:00:00 12,1 9,1 - - 52 28 67 36 S 991,4 12 0 0,0
19.09.2018 06:00:00 11,6 8,7 - - 31 17 63 34 SSW 992,9 16 0 0,0
19.09.2018 05:00:00 11,8 8,5 - - 41 22 59 32 SSW 993,4 17 0 0,0
19.09.2018 04:00:00 11,7 8,1 - - 41 22 63 34 SW 994,0 19 0 0,0
19.09.2018 03:00:00 11,4 7,7 - - 44 24 61 33 SW 994,3 18 0 0,0
19.09.2018 02:00:00 11,4 9,0 - - 42 23 72 39 SW 993,7 14 0 0,0
19.09.2018 01:00:00 10,5 8,2 - - 50 27 93 50 SW 992,6 18 - 0,4
19.09.2018 00:00:00 11,1 8,5 - - 46 25 65 35 SSW 992,0 17 0 0,4
18.09.2018 23:00:00 11,7 9,6 - - 44 24 65 35 S 992,3 16 0 0,4
18.09.2018 22:00:00 11,7 10,6 - - 39 21 72 39 SSW 993,0 6 0 4,6
18.09.2018 21:00:00 13,3 10,2 - - 35 19 57 31 SSW 993,3 12 0 0,0
18.09.2018 20:00:00 13,1 10,3 - - 39 21 63 34 SSW 993,8 10 0 0,0
18.09.2018 19:00:00 13,8 11,8 - - 34 18 48 26 SSW 993,4 14 42 0,0
18.09.2018 18:00:00 13,5 12,7 - - 29 16 - - S 993,5 10 6 0,0
18.09.2018 17:00:00 13,0 12,2 - - 28 15 - - S 994,1 10 6 0,0
18.09.2018 16:00:00 14,4 12,6 - - 26 14 - - S 994,1 45 30 0,0
18.09.2018 15:00:00 14,7 12,5 - - 18 10 - - SW 994,0 45 54 0,0
18.09.2018 14:00:00 13,0 12,4 - - 22 12 - - W 994,3 10 6 0,2
18.09.2018 13:00:00 12,6 12,3 - - 21 11 - - WNW 993,4 3,9 0 0,0
18.09.2018 12:00:00 13,9 13,3 - - 9 5 - - NNW 992,6 45 0 0,0
18.09.2018 11:00:00 13,5 13,2 - - 9 5 - - NW 992,4 6 0 0,4
18.09.2018 10:00:00 12,8 12,5 13,7 13,2 13 7 - - NNW 992,7 15 0 0,0
18.09.2018 09:00:00 12,5 12,2 - - 18 10 - - N 992,7 9 0 0,0
18.09.2018 08:00:00 12,3 12,0 - - 21 11 - - N 992,8 3,5 0 0,0
18.09.2018 07:00:00 12,0 11,2 - - 18 10 - - N 993,2 29 0 0,0
18.09.2018 06:00:00 12,1 11,7 - - 18 10 - - NNE 993,6 10 0 0,0
18.09.2018 05:00:00 12,2 11,8 - - 16 9 - - N 994,2 20 0 0,4
18.09.2018 04:00:00 12,1 11,7 - - 15 8 - - N 994,6 10 0 0,8
18.09.2018 03:00:00 12,1 11,8 - - 15 8 - - NNW 994,9 9 0 0,2
18.09.2018 02:00:00 12,1 11,9 - - 16 9 - - NW 994,9 5 0 0,0
18.09.2018 01:00:00 12,6 12,4 - - 26 14 - - WNW 995,0 6 - 0,0
18.09.2018 00:00:00 13,5 13,2 - - 26 14 57 31 SSW 994,0 4,1 0 0,0
17.09.2018 23:00:00 15,2 14,9 - - 39 21 57 31 SSW 993,3 6 0 0,4
17.09.2018 22:00:00 15,3 14,9 - - 44 24 61 33 S 993,0 5 0 0,4
17.09.2018 21:00:00 15,3 14,8 - - 44 24 61 33 S 992,9 7 0 0,0
17.09.2018 20:00:00 15,4 14,9 - - 48 26 61 33 S 993,0 7 0 0,0
17.09.2018 19:00:00 15,2 14,8 - - 46 25 63 34 SSE 993,1 6 0 0,2
17.09.2018 18:00:00 14,8 14,5 - - 50 27 65 35 SSE 993,8 4,6 0 0,4
17.09.2018 17:00:00 14,4 14,1 - - 46 25 61 33 SSE 995,1 3,7 0 3,4
17.09.2018 16:00:00 13,7 13,2 - - 50 27 72 39 SSE 996,8 7 0 2,8
17.09.2018 15:00:00 13,4 12,3 - - 50 27 67 36 SSE 998,5 5 0 1,2
17.09.2018 14:00:00 13,2 12,2 - - 35 19 50 27 SE 1000,3 10 0 1,4
17.09.2018 13:00:00 12,9 12,2 - - 37 20 46 25 SSE 1002,0 7 0 2,2
17.09.2018 12:00:00 12,8 12,3 - - 29 16 - - SSE 1003,5 6 0 1,4
17.09.2018 11:00:00 13,0 12,6 - - 26 14 - - S 1004,6 7 0 2,2
17.09.2018 10:00:00 13,0 12,4 13,7 13,2 26 14 - - S 1005,7 9 0 0,8
17.09.2018 09:00:00 12,9 12,3 - - 22 12 - - S 1006,2 10 0 0,2
17.09.2018 08:00:00 12,9 12,4 - - 28 15 - - SSW 1006,7 14 0 0,0
17.09.2018 07:00:00 12,6 12,1 - - 15 8 - - S 1007,0 26 0 0,2
17.09.2018 06:00:00 12,1 11,7 - - 15 8 - - SSW 1007,2 30 0 0,0
17.09.2018 05:00:00 11,8 11,7 - - 13 7 - - SSW 1007,2 35 0 0,0
17.09.2018 04:00:00 11,5 11,2 - - 11 6 - - SW 1007,7 17 0 1,2
17.09.2018 03:00:00 11,8 11,5 - - 18 10 - - SSW 1008,3 2,7 0 1,0
17.09.2018 02:00:00 11,8 11,3 - - 21 11 - - SSW 1008,6 3,8 0 0,2
17.09.2018 01:00:00 12,4 10,5 - - 24 13 - - SW 1008,8 14 - -
17.09.2018 00:00:00 11,9 9,7 - - 28 15 - - SW 1009,1 17 0 0,0
16.09.2018 23:00:00 11,4 9,7 - - 34 18 50 27 WSW 1009,0 23 0 0,2
16.09.2018 22:00:00 11,5 10,7 - - 24 13 - - SW 1008,5 3,2 0 0,0
16.09.2018 21:00:00 11,2 10,6 - - 26 14 - - SW 1009,1 8 0 1,2
16.09.2018 20:00:00 11,3 9,8 - - 16 9 - - SSW 1009,1 18 0 0,0
16.09.2018 19:00:00 10,6 9,8 - - 16 9 - - SW 1009,4 14 0 0,6
16.09.2018 18:00:00 10,9 8,7 - - 29 16 - - WSW 1009,3 5 0 0,4
16.09.2018 17:00:00 10,9 9,8 - - 22 12 - - W 1008,8 8 0 1,0
16.09.2018 16:00:00 12,6 8,2 - - 29 16 50 27 SW 1008,6 20 0 0,0
16.09.2018 15:00:00 12,6 7,8 - - 35 19 52 28 SW 1008,6 22 24 0,0
16.09.2018 14:00:00 12,9 8,7 - - 26 14 46 25 WSW 1008,1 10 0 0,0
16.09.2018 13:00:00 12,5 8,1 - - 34 18 - - WSW 1007,5 21 0 0,0
16.09.2018 12:00:00 12,3 8,2 - - 31 17 46 25 W 1007,0 10 0 0,0
16.09.2018 11:00:00 12,0 8,5 - - 29 16 46 25 W 1006,2 16 0 0,0
16.09.2018 10:00:00 12,0 10,8 13,7 13,4 29 16 52 28 W 1005,6 13 0 0,2
16.09.2018 09:00:00 11,8 10,3 - - 34 18 48 26 W 1005,0 14 0 0,2
16.09.2018 08:00:00 12,2 11,5 - - 31 17 50 27 WSW 1004,2 14 0 0,2
16.09.2018 07:00:00 12,6 10,9 - - 41 22 63 34 WSW 1003,1 13 0 0,0
16.09.2018 06:00:00 13,0 11,5 - - 42 23 63 34 WSW 1001,7 12 0 0,0
16.09.2018 05:00:00 13,2 12,4 - - 46 25 67 36 WSW 999,5 6 0 0,2
16.09.2018 04:00:00 13,6 13,1 - - 46 25 68 37 SW 998,7 3,8 0 0,4
16.09.2018 03:00:00 14,2 13,8 - - 46 25 70 38 S 998,8 6 0 0,6
16.09.2018 02:00:00 13,4 13,2 - - 55 30 78 42 S 999,7 3,2 0 1,2
16.09.2018 01:00:00 12,7 12,4 - - 59 32 80 43 SSE 1001,1 2,8 - 3,2
16.09.2018 00:00:00 12,8 12,1 - - 57 31 74 40 SSE 1003,0 2,8 0 4,6
15.09.2018 23:00:00 13,3 12,6 - - 48 26 65 35 SSE 1005,9 3,7 0 2,0
15.09.2018 22:00:00 13,3 12,6 - - 42 23 54 29 SSE 1008,1 10 0 1,2
15.09.2018 21:00:00 12,8 12,2 - - 37 20 48 26 SSE 1009,9 7 0 4,0
15.09.2018 20:00:00 12,7 12,2 - - 26 14 46 25 S 1011,3 10 0 1,6
15.09.2018 19:00:00 12,6 12,1 - - 39 21 54 29 S 1012,5 8 0 2,0
15.09.2018 18:00:00 12,3 11,7 - - 31 17 - - S 1013,5 9 0 -
15.09.2018 17:00:00 12,3 11,0 - - 22 12 - - S 1014,4 10 0 0,4
15.09.2018 16:00:00 13,0 10,9 - - 24 13 - - S 1015,0 29 0 0,0
15.09.2018 15:00:00 13,6 10,1 - - 26 14 - - S 1015,7 10 12 0,0
15.09.2018 14:00:00 13,0 10,5 - - 28 15 - - SSW 1016,1 35 0 0,0
15.09.2018 13:00:00 13,2 10,1 - - 24 13 - - SSW 1016,5 35 0 0,0
15.09.2018 12:00:00 12,7 9,2 - - 24 13 - - SSW 1016,7 10 0 0,0
15.09.2018 11:00:00 12,7 8,7 - - 21 11 - - SSW 1016,6 10 0 0,0
15.09.2018 10:00:00 12,1 8,6 13,9 13,4 18 10 - - SSW 1016,6 30 18 0,0
15.09.2018 09:00:00 11,6 8,0 - - 16 9 - - SW 1016,5 10 0 0,0
15.09.2018 08:00:00 10,3 8,0 - - 11 6 - - SW 1016,4 45 0 0,0
15.09.2018 07:00:00 9,4 7,0 - - 13 7 - - SW 1016,2 50 0 0,0
15.09.2018 06:00:00 9,3 6,9 - - 11 6 - - SW 1016,3 50 0 0,0
15.09.2018 05:00:00 9,6 7,2 - - 15 8 - - WSW 1016,2 45 0 0,0
15.09.2018 04:00:00 8,9 6,9 - - 11 6 - - W 1016,2 50 0 0,0
15.09.2018 03:00:00 9,2 7,0 - - 13 7 - - W 1016,3 35 0 0,0
15.09.2018 02:00:00 8,7 6,8 - - 11 6 - - SW 1016,2 13 0 0,0
15.09.2018 01:00:00 8,6 7,0 - - 9 5 - - W 1016,0 45 - 0,0
15.09.2018 00:00:00 9,5 7,0 - - 15 8 - - W 1015,8 40 0 0,0
14.09.2018 23:00:00 9,7 7,4 - - 15 8 - - W 1015,6 40 0 0,0
14.09.2018 22:00:00 8,0 5,5 - - 13 7 - - WSW 1015,4 45 0 0,0
14.09.2018 21:00:00 8,5 6,7 - - 15 8 - - W 1015,2 40 0 0,0
14.09.2018 20:00:00 9,1 6,1 - - 15 8 - - W 1014,3 50 12 0,0
14.09.2018 19:00:00 10,7 7,4 - - 18 10 - - W 1013,7 30 24 0,0
14.09.2018 18:00:00 9,4 7,7 - - 15 8 - - NNW 1013,6 30 0 0,4
14.09.2018 17:00:00 9,7 7,1 - - 18 10 - - NW 1013,1 10 6 0,0

tt = Température de l'air
td = dewpoint
tt -20cm = Température de l'air -20cm
tt -100cm = Température de l'air -100cm
ff = Vitesse du vent
fx = gusts
dd = Direction du vent
ppp = reduced air pressure
vv = visibility
sd = Ensoleillement
rr = Quantités de précipitations

stations d'obs. à proximité